Regional Weather Roundup
Issued by NWS

Home | Current Version | Previous Version | Graphics & Text | Print | Product List | Glossary On
Versions: 1 2 3 4 5 6 7 8 9 10 11 12 13 14 15 16 17 18 19 20 21 22 23 24 25 26 27 28 29 30 31 32 33 34 35 36 37 38 39 40 41 42 43 44 45 46 47 48 49 50
930
ASUS43 KDMX 291808
RWRIA

WEATHER ROUNDUP FOR IOWA
NATIONAL WEATHER SERVICE DES MOINES IA
100 PM CDT FRI JUL 29 2016

NOTE: "FAIR" INDICATES FEW OR NO CLOUDS BELOW 12,000 FEET WITH NO
SIGNIFICANT WEATHER AND/OR OBSTRUCTIONS TO VISIBILITY.

* - THESE STATIONS ARE NOT NWS STATIONS...THUS NOT UNDER NWS
QUALITY CONTROL.  THEY ALSO DO NOT REPORT WEATHER SUCH
AS PRECIPITATION OR FOG.

IAZ001>003-012>014-020>022-031>034-043>046-291900-
   NORTHWEST IOWA

CITY           SKY/WX    TMP DP  RH WIND       PRES   REMARKS
CARROLL *      CLOUDY    70  63  78 N15       30.04S
CHEROKEE *     PTSUNNY   74  63  69 N10       30.06F
DENISON *      CLOUDY    73  63  68 N14       30.03S
LE MARS *      PTSUNNY   77  59  53 N8G15     30.07F
SHELDON *      PTSUNNY   75  63  64 NE9       30.07F
SIOUX CITY     MOSUNNY   79  58  48 NE9       30.06F HX  80
6HR MIN TEMP:  63; 6HR MAX TEMP:  80;

SPENCER        CLOUDY    72  59  63 N9        30.08F
6HR MIN TEMP:  60; 6HR MAX TEMP:  74;

STORM LAKE *     N/A     72  63  73 NE12      30.07F
$$

IAZ055>058-069>071-079>083-090>094-291900-
   SOUTHWEST IOWA

CITY           SKY/WX    TMP DP  RH WIND       PRES   REMARKS
ATLANTIC *     PTSUNNY   75  64  69 NW13      30.03F
CLARINDA *       N/A     77  66  69 MISG      30.05F
COUNCIL BLFS * SUNNY     77  63  61 VRB7      30.05S
CRESTON *      PTSUNNY   75  63  64 NW10      30.04S
HARLAN  *      CLOUDY    75  63  64 N12       30.07S
LAMONI         PTSUNNY   75  65  70 N13       30.02F
6HR MIN TEMP:  65; 6HR MAX TEMP:  76;

RED OAK *      PTSUNNY   77  64  65 VRB7      30.04S
SHENANDOAH *   MOSUNNY   75  66  73 N6        30.05S
$$

IAZ047>049-059>061-072>074-084-291900-
   CENTRAL IOWA

CITY           SKY/WX    TMP DP  RH WIND       PRES   REMARKS
AMES           CLOUDY    69  65  86 N9        30.02R
6HR MIN TEMP:  65; 6HR MAX TEMP:  69;

ANKENY *         N/A    N/A N/A N/A MISG        N/A
BOONE *        CLOUDY    66  63  88 N8G15     30.02R
CHARITON *       N/A    N/A N/A N/A MISG        N/A
DES MOINES     CLOUDY    70  63  78 NW9       30.01S
6HR MIN TEMP:  66; 6HR MAX TEMP:  71;

GRINNELL*      CLOUDY    69  64  84 NW8       30.01S
KNOXVILLE *    CLOUDY    70  63  78 NW7       30.00R
MARSHALLTOWN   CLOUDY    67  66  97 N7        30.00S
6HR MIN TEMP:  65; 6HR MAX TEMP:  68; 6HR PCP:  0.05;

NEWTON *       CLOUDY    70  66  88 N10       30.00S
PELLA *        CLOUDY    69  64  83 NW6       30.01S
PERRY *        CLOUDY    69  64  86 N9        30.04R
$$

IAZ004>006-015-016-023>025-035-036-291900-
   NORTH CENTRAL IOWA

CITY           SKY/WX    TMP DP  RH WIND       PRES   REMARKS
ALGONA *       CLOUDY   N/A N/A N/A NE13      30.06F
ESTHERVILLE    CLOUDY    72  63  73 N9        30.08S
6HR MIN TEMP:  60; 6HR MAX TEMP:  72;

FORT DODGE *   CLOUDY    68  63  83 N10G17    30.05F
MASON CITY     CLOUDY    69  60  73 NE14      30.06F
6HR MIN TEMP:  62; 6HR MAX TEMP:  70; 6HR PCP:  0.02;

FOREST CITY *  LGT RAIN  64  63  94 N10       30.05F
IOWA FALLS *   LGT RAIN  66  63  90 N9        30.03F
$$

IAZ007>011-017>019-026>030-037>042-050>054-066-291900-
   NORTHEAST IOWA

CITY           SKY/WX    TMP DP  RH WIND       PRES   REMARKS
CEDAR RAPIDS   LGT RAIN  70  69  97 N7        29.97S FOG
6HR MIN TEMP:  66; 6HR MAX TEMP:  73; 6HR PCP:  0.02;

CHARLES CITY * CLOUDY    66  66 100 N10       30.03F
CLINTON *      MOSUNNY   76  71  85 N10       29.96F
DECORAH *      CLOUDY    64  64 100 N6        30.02F
DUBUQUE        CLOUDY    68  65  90 NE7       29.99S
6HR MIN TEMP:  65; 6HR MAX TEMP:  69;

MONTICELLO *   DRIZZLE   70  68  94 VRB6      29.97F
OELWEIN *      CLOUDY    68  64  88 MISG      30.01S
WATERLOO       CLOUDY    70  63  78 N9        29.99S
6HR MIN TEMP:  65; 6HR MAX TEMP:  71;

$$

IAZ064-065-067-068-078-291900-
   EAST CENTRAL IOWA

CITY           SKY/WX    TMP DP  RH WIND       PRES   REMARKS
DAVENPORT      CLOUDY    78  68  71 N8        29.95F HX  80
6HR MIN TEMP:  69; 6HR MAX TEMP:  78;

IOWA CITY      CLOUDY    76  67  73 W8        29.97F
6HR MIN TEMP:  68; 6HR MAX TEMP:  76;

MT. PLEASANT * CLOUDY    75  69  82 W6        29.98S
MUSCATINE *    CLOUDY    77  68  73 W6        29.96S
QUAD CITIES    LGT RAIN  77  69  76 W12       29.93F
6HR MIN TEMP:  72; 6HR MAX TEMP:  80; 6HR PCP: TRACE;

$$

IAZ062-063-075>077-085>089-095>099-291900-
   SOUTHEAST IOWA

CITY           SKY/WX    TMP DP  RH WIND       PRES   REMARKS
BURLINGTON     CLOUDY    73  66  78 W8        29.97S
6HR MIN TEMP:  65; 6HR MAX TEMP:  73;

FAIRFIELD *    CLOUDY    72  64  78 NW7       29.99S
KEOKUK *       PTSUNNY   77  66  69 W7        29.97S
CENTERVILLE *    N/A     73  64  73 W8        30.03S
OTTUMWA        CLOUDY    71  63  75 W8        29.99F
6HR MIN TEMP:  64; 6HR MAX TEMP:  71;

WASHINGTON *   CLOUDY    72  66  83 W10       29.99S
$$

ABBREVIATIONS USED IN REMARKS
   TC - TEMPERATURES IN CELSIUS
  WCI - WIND CHILL INDEX
   HX - HEAT INDEX
  VSB - VISIBILITY
$$





USA.gov is the U.S. government's official web portal to all federal, state and local government web resources and services.